Regional Weather Roundup
Issued by NWS

Home | Current Version | Previous Version | Graphics & Text | Print | Product List | Glossary On
Versions: 1 2 3 4 5 6 7 8 9 10 11 12 13 14 15 16 17 18 19 20 21 22 23 24 25 26 27 28 29 30 31 32 33 34 35 36 37 38 39 40 41 42 43 44 45 46 47 48 49 50
000
ASUS44 KMEG 200610
RWRTN
TENNESSEE HOURLY STATE WEATHER ROUNDUP
NATIONAL WEATHER SERVICE MEMPHIS TN
100 AM CDT FRI OCT 20 2017

TNZ002-004-019-021-049-052-054-088>092-200700-
WEST TENNESSEE

CITY           SKY/WX    TMP DP  RH WIND       PRES   REMARKS
MEMPHIS INTL   FAIR      60  51  72 S6        30.20F
NWS MEMPHIS      N/A     53 N/A N/A MISG        N/A
JACKSON        FAIR      47  46  97 CALM      30.22F
SOMERVILLE     CLEAR     50  50 100 CALM      30.20S
COVINGTON      CLEAR     48  46  93 CALM      30.21S
UNION CITY     CLEAR     48  48 100 CALM      30.21S
BOLIVAR        CLEAR     46  45  93 CALM      30.21S
HUNTINGDON     CLEAR     50  48  93 CALM      30.21S
LEXINGTON      CLEAR     46  45  93 CALM      30.22S
SELMER         CLEAR     50  48  93 CALM      30.22S
SAVANNAH       CLEAR     48  46  93 CALM      30.23R
$$

TNZ008-025-027-028-033-062-065-066-200700-
NORTH MIDDLE TENNESSEE

CITY           SKY/WX    TMP DP  RH WIND       PRES   REMARKS
NASHVILLE      FAIR      51  47  86 CALM      30.25R
PORTLAND       CLEAR     48  48 100 CALM      30.24S
CLARKSVILLE    FOG       49  48  97 CALM      30.24R VSB 3/4
SMYRNA         FAIR      48  47  96 SE3       30.26S
COOKEVILLE     FOG       39  39 100 CALM      30.26R VSB 1/2
GALLATIN       CLEAR     48  45  87 CALM      30.27S
CROSSVILLE     FAIR      45  43  93 CALM      30.28F
$$

TNZ061-075-076-078-094-096-097-200700-
SOUTH MIDDLE TENNESSEE

CITY           SKY/WX    TMP DP  RH WIND       PRES   REMARKS
FAYETTEVILLE   CLEAR     50  46  87 CALM      30.24S
TULLAHOMA        N/A     43  39  87 CALM      30.27S
WINCHESTER     CLEAR     43  43 100 CALM        N/A
COLUMBIA       CLEAR     46  46 100 CALM      30.23S
SHELBYVILLE    CLEAR     48  46  93 SE5       30.25S
$$

TNZ017-018-042-046-047-200700-
NORTHEAST TENNESSEE

CITY           SKY/WX    TMP DP  RH WIND       PRES   REMARKS
TRI CITIES     FAIR      43  43 100 CALM      30.30S
ELIZABETHTON   CLEAR     46  43  87 CALM      30.31S
$$

TNZ012-013-036-069-073-074-200700-
CENTRAL EAST TENNESSEE

CITY           SKY/WX    TMP DP  RH WIND       PRES   REMARKS
KNOXVILLE      FAIR      48  48 100 CALM      30.27R
OAK RIDGE      LGT RAIN  48  48 100 CALM      30.29S
DOWNTOWN KNOXV PTCLDY    48  48 100 CALM      30.29R
GATLINBURG     CLEAR     45  45 100 CALM      30.28R
MORRISTOWN     CLEAR     48  45  87 CALM      30.28S
JACKSBORO      PTCLDY    45  45 100 CALM      30.33S FOG
$$

TNZ083-085-099-200700-
SOUTHEAST TENNESSEE

CITY           SKY/WX    TMP DP  RH WIND       PRES   REMARKS
CHATTANOOGA    FAIR      49  46  90 CALM      30.28S
DAYTON         CLEAR     45  45 100 CALM      30.26F
$$

SKY/WX REPORTED AS FAIR MEANS FEW OR NO CLOUDS BELOW
12 THOUSAND FEET.





USA.gov is the U.S. government's official web portal to all federal, state and local government web resources and services.